Time,TemperatureF,DewpointF,PressureIn,WindDirection,WindDirectionDegrees,WindSpeedMPH,WindSpeedGustMPH,Humidity,HourlyPrecipIn,Conditions,Clouds,dailyrainin,SoftwareType,DateUTC
2013-01-15 00:03:00,53.0,52.0,30.24,SE,124,0.0,2.0,98,0.00,,,0.45,,2013-01-15 05:03:00,
2013-01-15 00:12:00,53.0,52.0,30.24,SSW,204,3.0,4.0,98,0.00,,,0.45,,2013-01-15 05:12:00,
2013-01-15 00:22:00,53.0,52.0,30.24,SSW,204,3.0,4.0,98,0.00,,,0.45,,2013-01-15 05:22:00,
2013-01-15 00:33:00,53.0,52.0,30.24,NNW,340,1.0,2.0,96,0.00,,,0.45,,2013-01-15 05:33:00,
2013-01-15 00:42:00,53.0,52.0,30.24,NNW,340,1.0,2.0,96,0.00,,,0.45,,2013-01-15 05:42:00,
2013-01-15 00:52:00,53.0,52.0,30.24,North,3,0.0,0.0,97,0.00,,,0.44,,2013-01-15 05:52:00,
2013-01-15 01:02:00,53.0,52.0,30.23,North,3,0.0,0.0,98,0.00,,,0.43,,2013-01-15 06:02:00,
2013-01-15 01:12:00,53.0,52.0,30.23,North,3,0.0,0.0,98,0.00,,,0.43,,2013-01-15 06:12:00,
2013-01-15 01:22:00,53.0,53.0,30.24,East,87,0.0,0.0,99,0.00,,,0.41,,2013-01-15 06:22:00,
2013-01-15 01:33:00,53.0,53.0,30.24,East,87,0.0,0.0,100,0.00,,,0.40,,2013-01-15 06:33:00,
2013-01-15 01:43:00,53.0,53.0,30.24,East,87,0.0,0.0,100,0.00,,,0.40,,2013-01-15 06:43:00,
2013-01-15 01:53:00,53.0,53.0,30.24,East,87,0.0,0.0,100,0.00,,,0.39,,2013-01-15 06:53:00,
2013-01-15 02:02:00,53.0,53.0,30.24,East,87,0.0,0.0,100,0.00,,,0.40,,2013-01-15 07:02:00,
2013-01-15 02:12:00,53.0,53.0,30.24,East,87,0.0,0.0,100,0.00,,,0.40,,2013-01-15 07:12:00,
2013-01-15 02:22:00,52.0,52.0,30.24,East,87,0.0,0.0,100,0.00,,,0.39,,2013-01-15 07:22:00,
2013-01-15 02:33:00,52.0,52.0,30.24,East,87,0.0,0.0,100,0.00,,,0.40,,2013-01-15 07:33:00,
2013-01-15 02:42:00,52.0,52.0,30.24,East,87,0.0,0.0,100,0.00,,,0.40,,2013-01-15 07:42:00,
2013-01-15 02:52:00,52.0,52.0,30.24,East,87,0.0,0.0,100,0.00,,,0.40,,2013-01-15 07:52:00,
2013-01-15 03:02:00,52.0,52.0,30.23,East,87,0.0,0.0,100,0.00,,,0.39,,2013-01-15 08:02:00,
2013-01-15 03:12:00,52.0,52.0,30.23,East,87,0.0,0.0,100,0.00,,,0.39,,2013-01-15 08:12:00,
2013-01-15 03:22:00,53.0,53.0,30.24,East,87,0.0,0.0,100,0.00,,,0.40,,2013-01-15 08:22:00,
2013-01-15 03:33:00,52.0,52.0,30.23,East,87,0.0,0.0,100,0.00,,,0.39,,2013-01-15 08:33:00,
2013-01-15 03:42:00,52.0,52.0,30.23,East,87,0.0,0.0,100,0.00,,,0.39,,2013-01-15 08:42:00,
2013-01-15 03:52:00,53.0,53.0,30.23,East,87,0.0,0.0,100,0.00,,,0.40,,2013-01-15 08:52:00,
2013-01-15 04:02:00,53.0,53.0,30.22,East,87,0.0,0.0,100,0.00,,,0.41,,2013-01-15 09:02:00,
2013-01-15 04:12:00,53.0,53.0,30.22,East,87,0.0,0.0,100,0.00,,,0.41,,2013-01-15 09:12:00,
2013-01-15 04:22:00,53.0,53.0,30.23,WSW,240,0.0,0.0,100,0.00,,,0.41,,2013-01-15 09:22:00,
2013-01-15 04:33:00,53.0,53.0,30.22,WSW,240,0.0,0.0,100,0.00,,,0.41,,2013-01-15 09:33:00,
2013-01-15 04:42:00,53.0,53.0,30.22,WSW,240,0.0,0.0,100,0.00,,,0.41,,2013-01-15 09:42:00,
2013-01-15 04:52:00,53.0,53.0,30.22,WSW,240,0.0,0.0,100,0.00,,,0.42,,2013-01-15 09:52:00,
2013-01-15 05:02:00,53.0,53.0,30.21,SE,145,0.0,0.0,100,0.00,,,0.42,,2013-01-15 10:02:00,
2013-01-15 05:12:00,53.0,53.0,30.21,SE,145,0.0,0.0,100,0.00,,,0.42,,2013-01-15 10:12:00,
2013-01-15 05:22:00,53.0,53.0,30.21,NE,38,0.0,0.0,100,0.00,,,0.42,,2013-01-15 10:22:00,
2013-01-15 05:32:00,53.0,53.0,30.22,SW,236,0.0,0.0,100,0.00,,,0.42,,2013-01-15 10:32:00,
2013-01-15 05:42:00,53.0,53.0,30.22,SW,236,0.0,0.0,100,0.00,,,0.42,,2013-01-15 10:42:00,
2013-01-15 05:52:00,53.0,53.0,30.21,SW,236,0.0,0.0,100,0.00,,,0.44,,2013-01-15 10:52:00,
2013-01-15 06:02:00,53.0,53.0,30.22,SW,221,0.0,1.0,100,0.00,,,0.45,,2013-01-15 11:02:00,
2013-01-15 06:12:00,53.0,53.0,30.22,SW,236,0.0,0.0,100,0.00,,,0.46,,2013-01-15 11:12:00,
2013-01-15 06:22:00,53.0,53.0,30.22,SW,236,0.0,0.0,100,0.00,,,0.46,,2013-01-15 11:22:00,
2013-01-15 06:33:00,53.0,53.0,30.22,SW,236,0.0,0.0,100,0.00,,,0.48,,2013-01-15 11:33:00,
2013-01-15 06:42:00,53.0,53.0,30.22,SW,236,0.0,0.0,100,0.00,,,0.48,,2013-01-15 11:42:00,
2013-01-15 06:53:00,53.0,53.0,30.23,SW,236,0.0,0.0,100,0.00,,,0.49,,2013-01-15 11:53:00,
2013-01-15 07:03:00,53.0,53.0,30.24,NNW,333,1.0,1.0,100,0.00,,,0.50,,2013-01-15 12:03:00,
2013-01-15 07:12:00,53.0,53.0,30.24,NNW,333,1.0,1.0,100,0.00,,,0.50,,2013-01-15 12:12:00,
2013-01-15 07:22:00,53.0,53.0,30.23,WSW,257,0.0,0.0,100,0.00,,,0.51,,2013-01-15 12:22:00,
2013-01-15 07:33:00,54.0,54.0,30.23,West,260,0.0,0.0,100,0.00,,,0.53,,2013-01-15 12:33:00,
2013-01-15 07:43:00,54.0,54.0,30.23,West,260,0.0,0.0,100,0.00,,,0.53,,2013-01-15 12:43:00,
2013-01-15 07:53:00,53.0,53.0,30.25,SSW,211,0.0,0.0,100,0.00,,,0.55,,2013-01-15 12:53:00,
2013-01-15 08:03:00,54.0,54.0,30.24,SSW,211,0.0,0.0,100,0.00,,,0.57,,2013-01-15 13:03:00,
2013-01-15 08:12:00,54.0,54.0,30.24,SSW,211,0.0,0.0,100,0.00,,,0.57,,2013-01-15 13:12:00,
2013-01-15 08:23:00,54.0,54.0,30.26,NE,46,0.0,0.0,100,0.00,,,0.57,,2013-01-15 13:23:00,
2013-01-15 08:33:00,54.0,54.0,30.27,WNW,291,0.0,0.0,100,0.00,,,0.59,,2013-01-15 13:33:00,
2013-01-15 08:43:00,54.0,54.0,30.27,WNW,291,0.0,0.0,100,0.00,,,0.59,,2013-01-15 13:43:00,
2013-01-15 08:53:00,53.0,53.0,30.27,ESE,121,0.0,1.0,100,0.00,,,0.61,,2013-01-15 13:53:00,
2013-01-15 09:03:00,53.0,53.0,30.27,East,80,2.0,5.0,100,0.00,,,0.62,,2013-01-15 14:03:00,
2013-01-15 09:12:00,53.0,53.0,30.27,East,80,2.0,5.0,100,0.00,,,0.62,,2013-01-15 14:12:00,
2013-01-15 09:23:00,53.0,53.0,30.27,ESE,104,4.0,7.0,100,0.00,,,0.63,,2013-01-15 14:23:00,
2013-01-15 09:33:00,53.0,53.0,30.27,ENE,69,0.0,2.0,100,0.00,,,0.62,,2013-01-15 14:33:00,
2013-01-15 09:43:00,53.0,53.0,30.27,ENE,69,0.0,2.0,100,0.00,,,0.62,,2013-01-15 14:43:00,
2013-01-15 09:53:00,53.0,53.0,30.27,SW,222,0.0,0.0,100,0.00,,,0.60,,2013-01-15 14:53:00,
2013-01-15 10:03:00,53.0,53.0,30.27,NNW,345,0.0,0.0,100,0.00,,,0.58,,2013-01-15 15:03:00,
2013-01-15 10:12:00,53.0,53.0,30.27,NNW,345,0.0,0.0,100,0.00,,,0.58,,2013-01-15 15:12:00,
2013-01-15 10:23:00,53.0,53.0,30.27,West,260,1.0,2.0,100,0.00,,,0.58,,2013-01-15 15:23:00,
2013-01-15 10:33:00,53.0,53.0,30.27,East,80,3.0,5.0,100,0.00,,,0.56,,2013-01-15 15:33:00,
2013-01-15 10:43:00,53.0,53.0,30.27,East,80,3.0,5.0,100,0.00,,,0.56,,2013-01-15 15:43:00,
2013-01-15 10:53:00,52.0,52.0,30.27,ESE,105,3.0,5.0,100,0.00,,,0.55,,2013-01-15 15:53:00,
2013-01-15 11:03:00,52.0,52.0,30.27,East,98,4.0,8.0,100,0.00,,,0.54,,2013-01-15 16:03:00,
2013-01-15 11:12:00,52.0,52.0,30.27,East,98,4.0,8.0,100,0.00,,,0.54,,2013-01-15 16:12:00,
2013-01-15 11:22:00,52.0,52.0,30.27,SE,131,5.0,7.0,100,0.00,,,0.54,,2013-01-15 16:22:00,
2013-01-15 11:33:00,52.0,52.0,30.27,ESE,110,5.0,7.0,100,0.00,,,0.54,,2013-01-15 16:33:00,
2013-01-15 11:43:00,52.0,52.0,30.27,ESE,110,5.0,7.0,100,0.00,,,0.54,,2013-01-15 16:43:00,
2013-01-15 11:53:00,52.0,52.0,30.26,SW,222,3.0,6.0,100,0.00,,,0.55,,2013-01-15 16:53:00,
2013-01-15 12:03:00,52.0,52.0,30.24,ESE,110,5.0,10.0,100,0.00,,,0.54,,2013-01-15 17:03:00,
2013-01-15 12:12:00,52.0,52.0,30.24,ESE,110,5.0,10.0,100,0.00,,,0.54,,2013-01-15 17:12:00,
2013-01-15 12:22:00,52.0,52.0,30.24,ESE,108,5.0,7.0,100,0.00,,,0.54,,2013-01-15 17:22:00,
2013-01-15 12:33:00,52.0,52.0,30.24,East,94,0.0,0.0,100,0.00,,,0.54,,2013-01-15 17:33:00,
2013-01-15 12:42:00,52.0,52.0,30.24,East,94,0.0,0.0,100,0.00,,,0.54,,2013-01-15 17:42:00,
2013-01-15 12:53:00,52.0,52.0,30.23,East,93,6.0,7.0,100,0.00,,,0.55,,2013-01-15 17:53:00,
2013-01-15 13:03:00,52.0,52.0,30.23,ESE,120,5.0,7.0,100,0.00,,,0.55,,2013-01-15 18:03:00,
2013-01-15 13:13:00,52.0,52.0,30.23,ESE,120,5.0,7.0,100,0.00,,,0.55,,2013-01-15 18:13:00,
2013-01-15 13:23:00,51.0,51.0,30.23,East,84,5.0,8.0,100,0.00,,,0.55,,2013-01-15 18:23:00,
2013-01-15 13:33:00,51.0,51.0,30.22,ESE,105,7.0,12.0,100,0.00,,,0.56,,2013-01-15 18:33:00,
2013-01-15 13:43:00,51.0,51.0,30.22,ESE,105,7.0,12.0,100,0.00,,,0.56,,2013-01-15 18:43:00,
2013-01-15 13:53:00,51.0,51.0,30.22,South,170,3.0,7.0,100,0.00,,,0.57,,2013-01-15 18:53:00,
2013-01-15 14:03:00,51.0,51.0,30.21,SSW,197,0.0,0.0,100,0.00,,,0.58,,2013-01-15 19:03:00,
2013-01-15 14:12:00,51.0,51.0,30.21,SSW,197,0.0,0.0,100,0.00,,,0.58,,2013-01-15 19:12:00,
2013-01-15 14:23:00,51.0,51.0,30.20,SSW,208,0.0,0.0,100,0.00,,,0.58,,2013-01-15 19:23:00,
2013-01-15 14:33:00,51.0,51.0,30.21,SE,129,0.0,1.0,100,0.00,,,0.58,,2013-01-15 19:33:00,
2013-01-15 14:42:00,51.0,51.0,30.21,SE,129,0.0,1.0,100,0.00,,,0.58,,2013-01-15 19:42:00,
2013-01-15 14:53:00,50.0,50.0,30.21,SSW,197,0.0,1.0,100,0.00,,,0.60,,2013-01-15 19:53:00,
2013-01-15 15:03:00,50.0,50.0,30.20,North,359,0.0,0.0,100,0.00,,,0.61,,2013-01-15 20:03:00,
2013-01-15 15:12:00,50.0,50.0,30.20,North,359,0.0,0.0,100,0.00,,,0.61,,2013-01-15 20:12:00,
2013-01-15 15:23:00,50.0,50.0,30.20,SW,215,0.0,0.0,100,0.00,,,0.62,,2013-01-15 20:23:00,
2013-01-15 15:33:00,50.0,50.0,30.20,West,266,0.0,0.0,100,0.00,,,0.63,,2013-01-15 20:33:00,
2013-01-15 15:43:00,50.0,50.0,30.20,West,266,0.0,0.0,100,0.00,,,0.63,,2013-01-15 20:43:00,
2013-01-15 15:52:00,50.0,50.0,30.20,NE,34,1.0,1.0,100,0.00,,,0.64,,2013-01-15 20:52:00,
2013-01-15 16:03:00,50.0,50.0,30.20,South,176,0.0,2.0,100,0.00,,,0.65,,2013-01-15 21:03:00,
2013-01-15 16:13:00,50.0,50.0,30.20,South,176,0.0,2.0,100,0.00,,,0.65,,2013-01-15 21:13:00,
2013-01-15 16:23:00,50.0,50.0,30.20,SE,136,3.0,6.0,100,0.00,,,0.67,,2013-01-15 21:23:00,
2013-01-15 16:33:00,50.0,50.0,30.20,NE,42,2.0,4.0,100,0.00,,,0.69,,2013-01-15 21:33:00,
2013-01-15 16:43:00,50.0,50.0,30.20,NE,42,2.0,4.0,100,0.00,,,0.69,,2013-01-15 21:43:00,
2013-01-15 16:52:00,49.0,49.0,30.21,ENE,63,3.0,6.0,100,0.00,,,0.73,,2013-01-15 21:52:00,
2013-01-15 17:03:00,49.0,49.0,30.21,NE,45,3.0,7.0,100,0.00,,,0.76,,2013-01-15 22:03:00,
2013-01-15 17:12:00,49.0,49.0,30.21,NE,45,3.0,7.0,100,0.00,,,0.76,,2013-01-15 22:12:00,
2013-01-15 17:23:00,49.0,49.0,30.21,ENE,60,2.0,5.0,100,0.00,,,0.78,,2013-01-15 22:23:00,
2013-01-15 17:33:00,49.0,49.0,30.21,SW,233,3.0,7.0,100,0.00,,,0.80,,2013-01-15 22:33:00,
2013-01-15 17:43:00,49.0,49.0,30.21,SW,233,3.0,7.0,100,0.00,,,0.80,,2013-01-15 22:43:00,
2013-01-15 17:52:00,49.0,49.0,30.22,ENE,69,0.0,2.0,100,0.00,,,0.82,,2013-01-15 22:52:00,
2013-01-15 18:02:00,48.0,48.0,30.22,West,274,1.0,3.0,100,0.00,,,0.84,,2013-01-15 23:02:00,
2013-01-15 18:13:00,48.0,48.0,30.22,West,274,1.0,3.0,100,0.00,,,0.84,,2013-01-15 23:13:00,
2013-01-15 18:22:00,48.0,48.0,30.22,NE,46,1.0,5.0,100,0.00,,,0.84,,2013-01-15 23:22:00,
2013-01-15 18:33:00,48.0,48.0,30.22,ENE,77,2.0,5.0,100,0.00,,,0.86,,2013-01-15 23:33:00,
2013-01-15 18:43:00,48.0,48.0,30.22,ENE,77,2.0,5.0,100,0.00,,,0.86,,2013-01-15 23:43:00,
2013-01-15 18:53:00,48.0,48.0,30.22,NNE,15,2.0,4.0,100,0.00,,,0.86,,2013-01-15 23:53:00,
2013-01-15 19:03:00,47.0,47.0,30.23,ENE,69,3.0,6.0,100,0.00,,,0.90,,2013-01-16 00:03:00,
2013-01-15 19:13:00,47.0,47.0,30.23,ENE,69,3.0,6.0,100,0.00,,,0.90,,2013-01-16 00:13:00,
2013-01-15 19:22:00,47.0,47.0,30.22,East,97,0.0,0.0,100,0.00,,,0.92,,2013-01-16 00:22:00,
2013-01-15 19:33:00,47.0,47.0,30.22,NE,49,0.0,0.0,100,0.00,,,0.93,,2013-01-16 00:33:00,
2013-01-15 19:43:00,47.0,47.0,30.22,NE,49,0.0,0.0,100,0.00,,,0.93,,2013-01-16 00:43:00,
2013-01-15 19:52:00,47.0,47.0,30.23,ENE,75,0.0,0.0,100,0.00,,,0.95,,2013-01-16 00:52:00,
2013-01-15 20:03:00,47.0,47.0,30.22,ENE,75,0.0,0.0,100,0.00,,,0.96,,2013-01-16 01:03:00,
2013-01-15 20:12:00,47.0,47.0,30.22,ENE,75,0.0,0.0,100,0.00,,,0.96,,2013-01-16 01:12:00,
2013-01-15 20:22:00,47.0,47.0,30.21,ENE,75,0.0,0.0,100,0.00,,,0.97,,2013-01-16 01:22:00,
2013-01-15 20:33:00,47.0,47.0,30.21,NW,316,0.0,0.0,100,0.00,,,0.98,,2013-01-16 01:33:00,
2013-01-15 20:43:00,47.0,47.0,30.21,NW,316,0.0,0.0,100,0.00,,,0.98,,2013-01-16 01:43:00,
2013-01-15 20:52:00,47.0,47.0,30.20,NE,51,1.0,2.0,100,0.00,,,0.98,,2013-01-16 01:52:00,
2013-01-15 21:03:00,47.0,47.0,30.20,ENE,65,3.0,4.0,100,0.00,,,0.98,,2013-01-16 02:03:00,
2013-01-15 21:12:00,47.0,47.0,30.20,ENE,65,3.0,4.0,100,0.00,,,0.98,,2013-01-16 02:12:00,
2013-01-15 21:22:00,46.0,46.0,30.19,NW,322,0.0,0.0,100,0.00,,,0.99,,2013-01-16 02:22:00,
2013-01-15 21:32:00,46.0,46.0,30.19,NNE,20,0.0,1.0,100,0.00,,,0.99,,2013-01-16 02:32:00,
2013-01-15 21:42:00,46.0,46.0,30.19,NNE,20,0.0,1.0,100,0.00,,,0.99,,2013-01-16 02:42:00,
2013-01-15 21:53:00,46.0,46.0,30.19,NNE,20,0.0,0.0,100,0.00,,,0.98,,2013-01-16 02:53:00,
2013-01-15 22:03:00,46.0,46.0,30.19,WSW,239,0.0,0.0,100,0.00,,,0.96,,2013-01-16 03:03:00,
2013-01-15 22:12:00,47.0,47.0,30.19,WSW,239,0.0,0.0,100,0.00,,,0.94,,2013-01-16 03:12:00,
2013-01-15 22:22:00,47.0,47.0,30.19,WSW,239,0.0,0.0,100,0.00,,,0.94,,2013-01-16 03:22:00,
2013-01-15 22:33:00,46.0,46.0,30.19,WSW,239,0.0,0.0,100,0.00,,,0.94,,2013-01-16 03:33:00,
2013-01-15 22:43:00,46.0,46.0,30.19,WSW,239,0.0,0.0,100,0.00,,,0.94,,2013-01-16 03:43:00,
2013-01-15 22:53:00,46.0,46.0,30.19,ESE,104,0.0,0.0,100,0.00,,,0.95,,2013-01-16 03:53:00,
2013-01-15 23:02:00,46.0,46.0,30.19,ESE,104,0.0,0.0,100,0.00,,,0.96,,2013-01-16 04:02:00,
2013-01-15 23:12:00,46.0,46.0,30.19,ESE,104,0.0,0.0,100,0.00,,,0.96,,2013-01-16 04:12:00,
2013-01-15 23:22:00,46.0,46.0,30.19,ESE,104,0.0,0.0,100,0.00,,,0.96,,2013-01-16 04:22:00,
2013-01-15 23:33:00,46.0,46.0,30.18,North,4,0.0,0.0,100,0.00,,,0.95,,2013-01-16 04:33:00,
2013-01-15 23:42:00,46.0,46.0,30.18,North,4,0.0,0.0,100,0.00,,,0.95,,2013-01-16 04:42:00,
2013-01-15 23:52:00,46.0,46.0,30.18,North,4,0.0,0.0,100,0.00,,,0.96,,2013-01-16 04:52:00,